Powrót do katalogu

KSLV-II R/B

AktywnySSO
NORAD 66663·ROCKET BODY·🇰🇷 South Korea

Wystrzelony Nov 26, 2025 z Naro Space Center

Loading…

Następne Przeloty (najbliższe 24 godziny)

TLE

ŚwieżeSource: Space-Track

Epoka: Sep 14, 2026, 13:25 UTC

1 66663U 25274P   26257.55952632  .00005791  00000-0  46535-3 0  9994
2 66663  97.7535 188.0398 0064761 102.3206 258.5277 14.98755717 43715

Śledź KSLV-II R/B w czasie rzeczywistym z AllMySat

Download on the App Store